Home   Weather   Tilburg   Past weeks

Flag for Netherlands Past Weather in Tilburg, Netherlands — Yesterday and Last 2 Weeks

Now
59 °F

Overcast.


Feels Like: 58 °F
Forecast: 48 / 64 °F
Wind: 8 mph from Southwest

Location: Gilze-Rijen

Current Time: Sep 30, 2016 at 12:12:33 PM

Latest Report: Sep 30, 2016 at 11:25 AM


Visibility: N/A

Pressure: 29.95 "Hg

Humidity: 77%

Dew Point: 52 °F

Location of TilburgLocation

Past Weather in Tilburg — Graph

°F

Tilburg Temperature Yesterday

Maximum temperature yesterday: 64 °F (at 12:25 AM)
Minimum temperature yesterday: 57 °F (at 10:25 PM)
Average temperature yesterday: 62 °F

High & Low Weather Summary for the Past Weeks

 TemperatureHumidityPressure
High84 °F (Sep 15, 1:55 PM)100% (Sep 16, 12:55 AM)30.30 "Hg (Sep 16, 12:55 AM)
Low41 °F (Sep 27, 7:25 AM)39% (Sep 24, 4:25 PM)29.77 "Hg (Sep 15, 3:55 PM)
Average60 °F78%30.09 "Hg
* Reported Sep 15 10:25 AM — Sep 30 10:55 AM, Tilburg, Weather by CustomWeather, © 2016

Note: Actual official high and low records may vary slightly from our data, if they occured in-between our weather recording intervals... More about our weather records

Advertising

Tilburg Weather History for the Previous 24 Hours

Scroll right to see more
 ConditionsComfort  
Time TempWeatherWind HumidityBarometerVisibility
10:55 AM
Fri, Sep 30
59 °FOvercast.9 mph77%29.95 "HgN/A
10:25 AM57 °FMore clouds than sun.7 mph88%29.92 "HgN/A
9:55 AM57 °FBroken clouds.7 mph88%29.92 "HgN/A
9:25 AM55 °FMore clouds than sun.7 mph94%29.92 "HgN/A
8:55 AM55 °FOvercast.8 mph94%29.92 "HgN/A
8:25 AM55 °FOvercast.7 mph94%29.92 "HgN/A
7:56 AM55 °FFog.5 mph94%29.92 "Hg5 mi
7:25 AM55 °FFog.8 mph94%29.89 "Hg6 mi
6:55 AM55 °FMostly cloudy.6 mph94%29.89 "HgN/A
6:25 AM55 °FFog.6 mph94%29.89 "Hg6 mi
5:55 AM55 °FMostly cloudy.6 mph94%29.89 "HgN/A
5:25 AM55 °FFog.5 mph94%29.89 "Hg6 mi
4:55 AM55 °FFog.6 mph94%29.89 "Hg6 mi
4:25 AM55 °FOvercast.6 mph94%29.92 "HgN/A
3:55 AM55 °FOvercast.6 mph100%29.92 "HgN/A
3:25 AM55 °FMostly cloudy.6 mph100%29.92 "HgN/A
2:55 AM57 °FOvercast.6 mph94%29.92 "HgN/A
2:25 AM57 °FMostly cloudy.6 mph94%29.92 "HgN/A
1:55 AM57 °FOvercast.6 mph94%29.92 "HgN/A
1:25 AM57 °FOvercast.6 mph94%29.92 "HgN/A
12:55 AM57 °FOvercast.6 mph94%29.92 "HgN/A
12:25 AM57 °FOvercast.6 mph94%29.95 "HgN/A
11:55 PM
Thu, Sep 29
57 °FMostly cloudy.5 mph94%29.95 "HgN/A
11:25 PM57 °FMostly cloudy.6 mph94%29.95 "HgN/A
10:55 PM59 °FOvercast.6 mph88%29.95 "HgN/A
10:25 PM57 °FMostly cloudy.6 mph94%29.95 "HgN/A
9:55 PM59 °FMostly cloudy.6 mph88%29.95 "HgN/A
9:25 PM59 °FPassing clouds.6 mph88%29.92 "HgN/A
8:55 PM59 °FMostly cloudy.7 mph88%29.92 "HgN/A
8:25 PM59 °FDrizzle. Mostly cloudy.7 mph94%29.92 "HgN/A
7:55 PM59 °FMostly cloudy.8 mph88%29.92 "HgN/A
7:25 PM59 °FLight rain. Mostly cloudy.14 mph88%29.92 "HgN/A
6:55 PM61 °FDrizzle. Cloudy.12 mph94%29.92 "Hg3 mi
6:25 PM64 °FOvercast.14 mph78%29.92 "HgN/A
5:55 PM64 °FMostly cloudy.16 mph78%29.92 "HgN/A
5:25 PM64 °FMostly cloudy.15 mph78%29.92 "HgN/A
4:55 PM64 °FMostly cloudy.13 mph78%29.92 "HgN/A
4:25 PM64 °FMostly cloudy.13 mph78%29.95 "HgN/A
3:55 PM64 °FOvercast.12 mph78%29.95 "HgN/A
3:25 PM64 °FMostly cloudy.13 mph78%29.95 "HgN/A
2:55 PM64 °FOvercast.13 mph78%29.95 "HgN/A
2:25 PM64 °FOvercast.15 mph73%29.95 "HgN/A
1:55 PM64 °FMostly cloudy.15 mph73%29.98 "HgN/A
1:25 PM64 °FOvercast.12 mph73%29.98 "HgN/A
12:55 PM64 °FOvercast.13 mph73%29.98 "HgN/A
12:25 PM64 °FOvercast.13 mph73%29.98 "HgN/A
Weather by CustomWeather, © 2016

See weather overviewHow to use our weather pages